Tracking 29494 objects as of 8-Sep-2024
HD Live streaming from Space Station
objects crossing your sky now

STARLINK-5910

Track STARLINK-5910 now!
10-day predictions
STARLINK-5910 is classified as:


NORAD ID: 56000
Int'l Code: 2023-042Q
Perigee: 565.4 km
Apogee: 567.1 km
Inclination: 43.0 °
Period: 95.8 minutes
Semi major axis: 6937 km
RCS: Unknown
Launch date: March 24, 2022
Source: United States (US)
Launch site: AIR FORCE EASTERN TEST RANGE (AFETR)
Your satellite tracking list
Your tracking list is empty




NASA's NSSDC Master Catalog

Two Line Element Set (TLE):
1 56000U 23042Q   24251.44615402  .00001671  00000-0  13875-3 0  9994
2 56000  43.0048 154.8190 0001202 265.4115  94.6590 15.02535940 80442
Source of the keplerian elements: AFSPC